Dewpoint
33 27 23 19 18 22 24 24 23 24 25 24 22 22 22 24 25 24 21 20 38 43 44 52 56 57 57 57 57 58 57 59 60 59 58 58 57 58 58 58 59 59 60 58
33 28 29 28 25 19 16 18 23 24 25 23 22 22 22 23 23 21 20 21 26 41 45 53 56 56 56 56 57 57 57 58 59 59 59 59 59 58 58 58 58 59 58 60
29 31 35 32 27 25 22 16 20 23 24 24 23 21 22 24 22 21 20 22 31 40 44 53 55 55 56 55 56 57 57 57 58 59 58 58 58 58 58 57 57 58 58 58
34 36 35 35 33 29 24 21 24 17 16 18 24 20 23 25 24 22 21 25 31 43 45 52 55 54 55 55 56 56 56 57 57 58 57 56 56 55 56 57 57 58 57 57
30 34 36 33 33 32 27 34 32 30 27 25 23 21 22 23 22 22 21 21 25 38 44 50 54 55 55 55 55 56 56 56 57 57 57 56 55 55 56 56 56 57 57 56
32 36 35 33 34 32 33 34 31 31 27 22 21 21 22 24 23 22 22 22 23 34 43 47 53 55 54 55 55 55 55 55 56 56 56 55 54 54 55 55 55 56 57 56
18 21 33 36 33 34 35 34 26 23 22 20 22 22 22 25 25 25 24 24 24 32 43 48 53 54 54 54 55 54 54 54 55 55 55 55 54 54 54 54 55 55 55 55
12 8 25 35 31 30 30 35 28 21 21 23 26 22 22 31 29 30 26 25 24 28 43 48 53 54 54 54 54 53 53 53 55 55 55 55 54 54 54 54 54 55 55 54
15 19 24 33 34 34 35 31 37 31 32 26 27 26 28 31 31 35 28 24 24 33 43 47 52 53 54 54 54 54 53 53 54 54 55 55 54 53 53 53 53 54 54 53
20 18 21 26 34 36 36 38 31 32 25 22 25 29 32 33 31 36 38 38 39 44 46 48 51 53 54 54 54 54 54 54 53 54 54 54 54 53 52 52 52 52 53 53
28 23 19 25 28 30 35 34 34 34 32 26 24 31 39 39 39 36 39 40 42 45 48 50 50 52 54 54 54 54 54 54 53 54 54 54 54 54 53 51 51 52 52 52
29 32 29 28 26 31 33 34 36 30 29 32 31 31 41 42 38 37 39 40 42 46 48 50 51 52 54 54 54 54 54 54 54 55 54 54 55 54 54 53 52 51 51 52
24 27 25 21 26 30 32 36 36 36 35 29 28 30 43 41 40 39 39 40 42 44 46 46 46 46 49 53 54 55 54 54 54 55 54 54 55 55 54 54 54 53 51 51
26 27 24 19 27 33 31 33 35 36 30 31 31 35 39 39 40 40 42 39 41 42 42 41 41 41 43 44 45 46 46 47 48 53 54 54 55 55 55 55 55 54 53 52
27 21 29 28 28 29 30 31 34 34 35 31 29 30 35 39 41 42 42 39 40 40 39 37 37 37 38 39 40 42 43 43 44 49 49 51 54 55 55 55 55 55 54 53
34 25 30 25 29 24 21 24 30 34 36 36 35 32 40 43 43 43 44 40 39 39 38 35 33 33 33 35 36 37 38 39 39 40 41 43 45 50 52 55 55 55 55 54
28 28 25 20 25 22 17 27 24 33 35 33 34 35 43 43 41 43 42 41 39 37 36 33 32 32 32 32 34 34 34 36 36 37 38 39 40 42 42 44 45 52 54 54
28 27 27 22 21 13 17 19 30 31 35 38 38 39 41 41 43 42 42 41 39 37 33 32 32 31 30 31 32 32 32 33 34 34 34 35 35 36 37 39 41 41 44 46
29 26 21 17 17 17 16 29 29 29 30 36 36 39 40 41 36 35 36 36 36 35 32 30 29 28 28 29 30 31 31 32 32 31 31 30 31 31 33 35 35 37 41 42
31 28 23 24 17 10 19 28 30 32 29 37 37 40 40 38 35 32 34 33 32 31 29 28 27 27 27 28 29 29 30 30 29 29 28 28 27 29 30 31 32 34 37 39
25 26 24 22 20 20 25 34 32 22 30 37 37 43 40 36 34 31 31 30 29 29 27 27 26 26 27 28 28 28 28 27 27 27 27 26 26 27 28 29 30 32 34 35
21 22 23 23 20 16 33 34 27 35 38 37 35 34 32 31 30 29 28 27 26 25 25 25 25 25 26 27 27 27 26 26 26 26 25 24 25 26 26 27 28 29 30 30
24 29 26 24 23 34 33 33 37 39 39 39 37 35 33 32 31 29 27 24 23 23 23 24 24 24 25 25 26 26 25 25 24 24 23 23 23 23 25 25 25 26 27 27
34 37 31 32 34 34 33 32 32 31 32 34 36 36 34 31 30 27 23 23 22 22 23 23 23 23 24 25 25 25 26 25 23 22 23 22 22 21 21 23 23 23 24 25
33 33 30 32 34 35 36 34 34 33 31 30 28 28 27 26 24 23 22 22 21 21 22 22 22 22 23 23 24 24 24 23 21 21 21 20 21 21 21 22 23 23 24 24
31 28 27 27 32 33 31 34 34 31 29 27 25 24 24 24 23 21 20 20 20 19 19 19 20 20 21 22 22 23 24 22 21 20 20 21 20 20 19 19 20 21 22 23
Wind_Speed
1 7 18 17 13 10 14 15 15 9 7 7 16 23 22 21 18 17 25 16 27 30 24 18 21 20 19 16 17 16 17 16 15 14 13 9 9 9 7 9 9 12 14 17
1 13 16 9 13 15 14 19 20 18 16 9 17 24 24 24 24 19 21 21 26 25 18 20 23 22 22 21 18 16 15 18 16 13 12 6 9 7 8 8 9 12 13 15
8 5 5 10 14 14 18 18 14 19 10 16 20 24 19 25 11 15 12 18 19 30 28 23 25 25 22 22 20 19 17 17 17 14 12 10 9 7 9 10 11 12 15 14
9 8 7 9 10 11 18 13 16 14 12 13 2 13 14 20 19 14 17 13 18 21 22 22 25 26 27 23 18 17 17 17 15 16 15 14 12 10 9 11 12 13 16 17
7 5 6 6 10 10 11 6 10 5 7 6 13 9 14 7 16 17 13 15 18 27 28 28 31 29 25 23 22 19 17 16 15 16 15 14 11 9 9 10 15 16 13 13
14 4 7 8 7 9 6 12 15 11 11 17 16 12 13 15 11 13 14 15 16 23 24 25 19 22 22 20 20 19 19 17 15 16 15 17 15 12 12 14 16 16 16 12
9 21 10 6 5 9 10 5 4 8 12 15 11 15 19 14 16 18 21 23 13 20 22 23 27 27 25 25 22 21 21 19 17 15 14 15 16 14 13 15 15 16 18 18
4 5 12 11 18 6 19 8 5 6 6 5 8 8 3 11 12 18 22 26 22 18 26 31 31 29 28 27 24 23 22 20 18 18 17 14 13 13 13 13 13 15 17 21
5 5 3 11 7 10 4 19 1 1 5 2 4 6 4 25 25 29 20 19 21 12 28 27 26 26 27 27 28 26 24 21 21 20 19 18 14 13 15 15 11 14 17 14
2 5 4 5 9 9 5 5 7 3 5 5 5 3 5 20 24 23 23 12 4 7 14 17 19 20 19 17 17 16 18 19 18 18 15 15 15 15 13 14 16 13 12 13
4 3 6 1 8 11 5 4 3 4 3 4 4 5 2 15 19 18 18 20 18 13 13 14 17 16 16 15 14 13 13 13 13 15 16 15 14 14 13 15 16 18 14 14
1 2 5 10 11 18 16 9 5 4 5 3 1 5 5 14 21 17 20 22 26 24 24 23 20 18 18 18 17 16 14 13 14 15 17 17 15 15 17 16 16 14 17 15
4 1 4 9 5 6 5 13 12 8 1 9 5 3 6 10 19 24 20 21 24 25 27 27 28 26 23 12 11 12 12 11 12 16 17 17 15 15 16 17 17 16 18 17
3 3 2 4 6 3 8 13 8 11 5 3 9 2 2 6 13 19 21 15 22 24 25 24 24 23 21 20 18 15 16 12 8 14 19 18 19 18 18 17 17 19 20 21
3 1 1 10 12 12 16 15 14 11 9 6 7 14 13 13 6 8 14 11 19 22 22 21 21 19 19 20 16 16 17 16 17 17 11 4 13 15 17 18 19 20 20 23
2 1 2 7 5 14 16 15 16 17 14 14 22 18 5 14 13 8 7 12 18 16 19 19 20 19 19 18 16 16 17 17 17 17 16 14 14 15 7 15 19 21 23 25
1 3 2 5 10 19 13 2 10 9 13 7 17 13 14 19 18 16 15 12 14 15 16 14 16 15 14 15 14 17 16 14 16 17 16 16 17 15 15 14 14 10 17 21
6 5 4 5 8 7 6 19 14 8 9 12 13 13 10 8 19 14 18 17 15 13 10 11 12 12 15 16 16 13 15 16 16 17 16 16 16 15 16 15 14 16 15 14
14 8 4 4 7 11 16 4 3 12 12 5 9 8 10 23 27 19 16 17 15 13 11 13 13 13 16 18 15 14 15 14 15 18 17 18 17 15 14 14 15 16 15 15
9 5 5 3 4 4 3 13 5 6 13 5 6 9 24 23 17 8 11 11 11 14 12 13 12 13 16 16 13 13 14 15 17 16 16 16 16 13 15 16 15 14 13 14
5 4 18 15 8 9 9 17 12 3 7 15 10 23 29 13 8 19 15 13 13 11 12 12 13 14 14 13 13 15 15 18 15 16 16 17 18 15 16 14 13 14 15 12
6 7 6 7 7 12 16 13 4 5 15 14 20 21 28 25 22 18 15 13 11 11 12 11 11 13 14 14 13 14 16 13 13 13 14 17 18 16 16 18 16 16 15 14
2 2 4 8 4 6 8 10 15 9 17 9 19 16 24 22 18 13 13 11 11 11 11 11 11 13 13 13 13 14 13 11 11 12 14 15 17 20 19 21 21 17 17 16
2 3 1 0 10 10 11 16 21 21 22 18 16 15 14 20 15 14 11 9 12 11 12 12 13 15 16 15 16 15 12 10 10 12 12 13 17 20 22 19 21 22 19 18
4 3 4 2 12 15 11 13 18 18 21 21 19 17 15 17 15 13 12 12 12 13 13 14 15 15 15 15 16 15 16 12 13 13 13 13 13 14 18 25 23 23 27 24
6 4 3 1 6 9 8 12 11 19 17 15 15 16 15 14 14 14 13 12 13 14 13 15 15 15 15 16 16 16 13 11 10 12 12 13 13 13 14 13 16 31 33 34
Wind_Direction
170 210 228 235 223 253 258 256 263 263 273 300 279 278 280 297 283 266 257 227 201 211 217 163 165 164 166 173 172 170 174 167 162 159 160 170 173 177 167 163 161 149 161 167
241 242 250 255 254 261 273 266 265 276 276 279 286 287 289 289 267 261 269 250 210 209 185 166 163 170 173 176 180 173 174 176 170 163 161 160 169 182 183 171 175 167 163 164
213 216 328 247 241 245 254 257 255 260 295 281 283 283 287 281 271 293 283 243 215 195 188 171 171 177 174 179 180 180 179 177 179 156 135 129 127 133 176 186 189 185 166 159
249 252 260 270 243 233 249 243 267 270 278 269 287 285 276 281 285 293 285 233 211 196 195 174 170 179 182 181 177 176 182 186 176 159 165 173 191 190 197 187 180 186 179 173
235 205 219 232 236 232 258 345 298 288 277 251 256 262 271 242 285 288 268 258 229 207 195 184 185 181 178 173 174 175 184 187 176 173 176 185 197 201 176 167 178 186 170 164
251 224 223 224 231 230 260 296 276 264 242 252 237 230 260 242 252 274 272 255 209 210 206 193 169 161 169 168 170 176 180 185 183 180 179 187 196 197 185 190 185 190 182 171
265 248 228 193 214 198 218 258 234 226 226 237 203 217 248 292 280 276 278 282 244 205 192 174 166 167 168 171 172 179 182 186 183 187 192 193 190 191 192 183 188 176 185 181
241 307 180 202 210 194 204 202 217 220 227 200 230 247 217 2 351 323 267 264 273 212 191 182 176 169 170 175 174 181 183 185 185 185 193 204 204 181 182 179 184 190 190 190
216 254 151 185 161 158 184 213 316 313 319 320 233 255 210 0 359 354 309 266 274 225 182 174 167 168 168 173 179 182 182 185 190 190 188 192 196 198 182 178 189 193 201 191
221 292 302 208 134 169 169 148 189 203 222 214 222 98 19 6 2 359 0 2 329 151 155 156 159 164 165 163 170 174 178 185 192 195 195 195 193 198 192 184 191 194 196 185
206 220 275 82 198 182 205 185 194 203 218 220 171 155 38 8 6 7 10 30 52 97 112 111 112 122 122 127 148 151 158 172 191 196 202 207 205 200 195 202 198 195 195 203
151 63 267 254 247 195 190 205 176 198 181 208 48 264 44 5 14 15 34 36 53 65 78 82 83 99 126 142 152 158 160 166 182 195 204 208 203 200 205 212 215 208 210 204
161 149 312 317 56 78 163 185 198 217 137 228 198 240 8 3 5 21 31 43 55 63 67 73 70 67 64 83 123 144 160 182 189 193 205 211 206 206 210 213 214 213 216 218
76 89 94 269 296 282 306 338 268 214 197 197 223 236 90 299 349 5 8 46 62 61 59 60 60 63 59 51 47 54 55 37 2 219 202 203 210 209 212 214 216 215 213 216
79 160 328 290 290 284 267 258 260 261 247 229 265 233 209 190 161 339 355 44 69 66 62 60 54 52 53 51 38 37 40 35 29 62 63 338 227 216 218 219 219 219 217 221
53 156 16 289 314 335 300 257 250 223 246 272 254 267 141 144 136 163 20 53 56 47 59 55 57 46 45 42 35 31 33 33 39 44 37 23 22 42 319 245 227 224 228 229
166 135 49 292 334 327 300 321 305 227 196 183 247 250 149 167 156 154 117 102 81 60 55 52 52 43 41 40 33 33 33 28 39 41 31 23 17 14 8 351 356 310 252 243
162 164 171 279 333 277 265 320 38 332 216 190 199 219 181 167 105 90 127 125 102 90 71 51 46 45 35 32 32 33 34 31 33 33 31 21 13 7 358 352 350 344 334 327
211 177 208 232 228 285 301 347 60 11 294 215 269 208 199 122 95 72 71 84 88 88 71 63 44 31 36 32 27 30 33 29 32 29 26 14 7 2 359 356 344 336 329 326
175 180 200 177 237 258 249 351 317 31 281 332 285 188 140 149 150 128 103 88 90 86 75 65 48 42 39 23 26 36 36 33 29 21 22 17 12 10 5 351 345 339 335 327
138 186 218 226 242 273 297 326 323 291 290 339 269 161 158 154 126 127 113 90 74 66 64 59 48 46 35 28 35 37 33 30 21 24 23 20 17 17 14 4 1 351 356 7
206 190 196 190 218 256 350 319 231 134 52 34 66 98 102 105 104 108 105 96 87 74 60 59 59 49 37 29 36 42 36 26 34 34 34 30 26 25 22 21 15 20 23 32
217 230 234 195 206 55 17 50 45 74 99 75 78 83 100 102 97 104 99 100 89 79 72 59 61 58 46 38 37 46 34 33 47 53 49 43 39 37 36 36 32 33 34 41
255 163 217 148 140 97 58 61 65 59 59 64 85 93 102 112 114 102 98 86 77 66 65 67 60 52 42 33 31 33 29 39 50 54 47 50 54 53 45 46 46 45 43 50
338 342 7 353 122 100 70 71 83 67 66 61 60 70 83 97 94 98 87 76 70 63 57 59 59 53 45 37 30 25 26 32 47 44 41 43 43 48 60 56 52 54 52 56
0 354 354 11 15 87 72 41 75 91 83 85 83 76 79 95 98 93 83 72 69 66 57 59 57 55 45 44 38 25 28 49 61 60 47 41 43 42 45 52 60 55 56 55